Wind_Speed
35 33 32 34 32 29 25 21 17 14 11 9 7 6 5 4 3 2 1 1 2 3
32 32 32 32 29 26 22 19 17 13 11 9 8 6 5 5 4 3 2 2 3 4
29 28 27 28 28 26 23 20 17 13 11 9 8 7 6 5 4 2 2 2 3 5
26 25 26 27 24 22 20 18 15 13 11 8 6 5 4 4 3 2 2 3 4 6
27 26 24 23 22 20 18 15 12 10 8 7 6 4 3 3 3 3 3 4 6 9
27 26 24 21 20 18 16 13 11 9 7 5 4 3 3 4 3 3 5 7 9 11
26 24 22 20 17 16 14 13 10 8 6 5 2 2 3 2 2 5 8 9 11 13
24 23 20 17 15 13 10 9 7 5 4 2 3 3 3 2 4 8 10 11 13 14
22 20 18 15 13 11 8 6 5 4 3 3 3 3 5 7 9 8 9 12 14 16
17 15 12 11 10 8 7 5 4 4 4 3 3 4 4 7 7 8 11 13 15 15
15 13 11 10 9 8 7 6 5 5 4 4 2 3 4 6 7 9 10 13 15 14
11 11 10 9 8 7 7 5 5 5 5 4 3 3 5 5 8 9 13 13 12 12
9 8 7 6 6 5 5 5 6 5 3 3 4 3 4 7 6 11 13 10 11 11
6 6 6 5 5 5 5 6 4 3 2 2 3 4 5 6 8 12 14 10 13 15
Wind_Direction
194 190 188 186 185 183 179 174 172 173 172 169 171 170 167 164 165 173 227 269 280 282
191 188 185 186 185 179 176 174 173 174 175 174 177 182 180 180 186 202 241 256 278 293
188 187 184 179 176 174 172 174 173 176 179 181 185 190 190 188 200 224 247 273 287 297
178 176 174 172 170 169 167 168 172 174 176 182 191 201 206 207 221 231 251 274 287 294
167 167 165 162 160 162 162 164 167 171 177 181 191 212 233 245 249 264 282 292 294 301
151 153 151 149 150 153 156 159 163 167 172 181 197 217 244 255 254 292 301 301 303 307
140 141 142 144 148 154 159 158 162 166 169 169 188 262 272 263 299 303 306 308 306 308
135 140 144 147 151 155 157 157 158 157 160 170 224 239 232 257 286 302 300 306 307 308
142 147 148 149 156 167 170 167 169 173 173 206 231 234 256 259 288 286 297 302 307 311
142 144 155 160 160 165 162 155 151 174 184 197 253 271 266 277 293 300 299 302 309 307
157 156 157 159 163 156 148 155 180 193 196 227 242 263 285 296 291 303 303 310 314 307
150 152 157 160 162 166 166 175 189 194 214 234 268 278 287 282 304 302 308 313 314 307
154 158 162 170 170 178 181 187 195 210 220 255 273 284 301 301 298 307 307 304 305 308
159 166 171 174 182 187 194 199 202 209 232 269 299 312 312 303 308 312 306 316 319 317
Height
770 776 783 789 796 802 806 810 813 816 818 821 823 825 826 828 829 831 832 834 835 836
771 774 779 786 793 799 804 808 811 815 818 819 822 824 825 826 828 829 830 831 832 832
772 776 780 786 791 795 800 805 810 814 817 819 821 822 823 824 825 826 827 828 829 829
772 778 783 787 792 797 802 805 809 812 815 818 821 822 822 822 822 823 825 826 826 827
770 778 785 790 794 799 803 806 809 812 814 816 817 819 821 821 822 822 823 824 824 824
770 778 786 792 796 800 803 806 808 810 812 814 816 817 818 819 820 820 821 821 821 821
774 782 789 792 798 801 803 804 807 808 809 811 813 815 815 816 817 819 819 818 818 817
779 785 790 794 798 801 804 803 805 808 808 809 811 812 814 814 815 815 816 815 815 813
783 787 790 794 798 801 803 803 804 807 808 809 810 810 811 812 812 812 812 812 811 810
786 789 792 795 797 801 801 802 803 806 807 806 808 809 809 809 809 808 809 808 808 806
786 789 792 796 798 798 798 799 803 805 806 806 804 806 806 806 806 807 806 805 804 802
788 790 793 795 796 796 796 798 802 804 804 803 802 802 803 803 803 803 803 802 801 799
789 790 792 793 794 795 797 799 802 803 801 800 800 800 801 800 800 800 800 798 797 795
789 790 791 792 794 795 796 799 798 799 799 798 799 798 798 798 798 797 796 794 791 788